Location: Napa Soda Springs
(38.3907°N, 122.2794°W)
Time: 06:54:16
(UTC+00:00)

H-2A R/B - Pass Details

Date: 29 October 2020
Orbit: 528 x 653 km, 98.3° (Epoch: 02 December)

Event Time Altitude Azimuth Distance (km) Brightness Sun altitude
Rises 13:34:29 0° 20° (NNE) 2,916 6.2 -12.0°
Reaches altitude 10° 13:36:49 10° 27° (NNE) 1,986 5.4 -11.6°
Maximum altitude 13:40:55 43° 99° (E) 848 3.9 -10.8°
Drops below altitude 10° 13:44:52 10° 171° (S) 1,899 5.3 -10.0°
Sets 13:47:03 0° 179° (S) 2,772 6.1 -9.6°
